Volver al catálogo

STARLINK-35272

ActivoComunicacionesVLEO
NORAD 65899·PAYLOAD·🇺🇸 United States

Lanzado Oct 7, 2025 desde Cape Canaveral Space Force Station

Loading…

Próximos Pases (próximas 24 horas)

TLE

ActualizadoSource: CelesTrak SupGP

Época: Sep 14, 2026, 14:59 UTC

1 65899C 25224T   26257.62479167  .00014033  00000+0  41463-3 0  2574
2 65899  53.1579 209.2486 0001384 100.2330 297.6407 15.34382676    16

Sigue STARLINK-35272 en tiempo real con AllMySat

Download on the App Store